Location: Byszew
(52.1813°N, 19.2693°E)
Time: 14:02:06
(UTC+00:00)

USA 307 - Pass Details

Date: 03 March 2021
Orbit: 567 x 577 km, 54.0° (Epoch: 10 April)

Event Time Altitude Azimuth Distance (km) Brightness Sun altitude
Rises 18:17:52 0° 276° (W) 2,788 8.1 -17.8°
Reaches altitude 10° 18:20:08 10° 279° (W) 1,887 6.8 -18.2°
Maximum altitude 18:24:25 68° 2° (N) 621 3.0 -18.8°
Enters shadow 18:25:45 42° 71° (ENE) 831 3.3 -19.0°
